Regional Weather Roundup
Issued by NWS Wakefield, VA

Home | Current Version | Previous Version | Text Only | Print | Product List | Glossary Off
Versions: 1 2 3 4 5 6 7 8 9 10 11 12 13 14 15 16 17 18 19 20 21 22 23 24 25 26 27

000
ASUS41 KAKQ 251715
RWRAKQ

REGIONAL WEATHER ROUNDUP
NATIONAL WEATHER SERVICE WAKEFIELD VA
100 PM EDT SUN JUN 25 2017

Note: "fair" indicates few or no clouds below 12,000 feet with no
significant weather and/or obstructions to visibility. * = Denotes
station may not report precipitation (e.g., rain,snow,etc.),
thunder or fog.

VAZ042-051-052>054-056-251800-
NORTHERN VIRGINIA

CITY           SKY/WX    TMP DP  RH WIND       PRES   REMARKS
WASH NATIONAL  PTSUNNY   85  59  41 NW14      30.03F
DULLES         PTSUNNY   81  52  36 W15       30.03F
FORT BELVOIR   MOSUNNY   85  58  39 W8        30.03F
QUANTICO       PTSUNNY   84  58  40 NW8       30.03F
FREDERICKSBRG* MOSUNNY   83  59  43 NW5       30.02F
STAFFORD*      MOSUNNY   83  55  38 W3        30.07F
WARRENTON      MOSUNNY   84  51  32 SW7       30.04F
CULPEPER*      MOSUNNY   83  60  44 NW7       30.05F
MANASSAS*      MOSUNNY   83  59  44 NW9       30.03F
LEESBURG*      MOSUNNY  N/A N/A N/A W9G18     30.05S
WINCHESTER     MOSUNNY   79  50  36 W13G21    30.05F
FRONT ROYAL*   MOSUNNY   81  52  36 W9        30.05F
LURAY*         MOSUNNY   81  50  34 SW8       30.07F
$$

VAZ048-049-060>072-079>083-251800-
CENTRAL AND SOUTH CENTRAL VIRGINIA

CITY           SKY/WX    TMP DP  RH WIND       PRES   REMARKS
RICHMOND       PTSUNNY   83  64  52 N6        30.04F
CHESTERFIELD*  NOT AVBL
PETERSBURG*    CLOUDY    82  59  44 CALM      30.06S
HANOVER        PTSUNNY   82  61  48 VRB5      30.06S
TAPPAHANNOCK*  PTSUNNY   84  52  33 CALM      30.05F
QUINTON*       FAIR      82  63  53 CALM      30.04F
CHARLOTTSVILLE MOSUNNY   82  56  40 W6        30.06F
GORDONSVILLE*  MOSUNNY   82  58  43 S7        30.04F
ORANGE*        MOSUNNY   81  55  41 W7        30.05F
LOUISA*        SUNNY     88  61  40 W6        30.04F
BUMPASS*       PTSUNNY   79  63  57 CALM      30.06S
FARMVILLE*     CLOUDY    82  47  29 W6        30.07S
CREWE*         PTSUNNY   81  54  38 NW7       30.07F
FORT PICKETT*  FAIR     N/A N/A N/A CALM      30.07S
CHASE CITY*    FAIR      80  64  58 W5        30.09S
CLARKSVILLE*   FAIR      81  63  54 W5        30.09S
SOUTH HILL*    CLOUDY    81  65  57 N3        30.13F
LAWRENCEVILLE* FAIR      83  63  52 N7        30.07S
EMPORIA*       MOSUNNY   82  64  54 W6        30.07S
$$

VAZ088>098-251800-
SOUTHEAST VIRGINIA

CITY           SKY/WX    TMP DP  RH WIND       PRES   REMARKS
NORFOLK        MOSUNNY   83  70  64 N8        30.02S
VIRGINIA BEACH LGT RAIN  81  70  69 N10       30.01S
NORFOLK NAVAL  PTSUNNY   87  69  54 N9        30.04S
WEST POINT*    MOSUNNY   83  57  41 NW6       30.05F
SALUDA*        FAIR      82  63  52 NW8       30.03F
NEWPORT NEWS   PTSUNNY   84  68  58 N5        30.03S
LANGLEY AFB    CLOUDY    83  67  58 N9        30.02F
FORT EUSTIS    CLOUDY    87  67  50 NW7       30.01S
WILLIAMSBURG*  SUNNY     88  68  51 CALM      30.04F
HR EXEC AP*    PTSUNNY   84  72  65 NW5       29.99F
FRANKLIN*      CLOUDY    82  68  61 CALM      30.03F
US460-WAKEFLD  PTSUNNY   85  64  49 NW6       30.04F
$$

VAZ020-022-025-037-045-251800-
WEST CENTRAL AND SOUTHWEST VIRGINIA

CITY           SKY/WX    TMP DP  RH WIND       PRES   REMARKS
STAUNTON*      MOSUNNY   77  53  42 W6        30.11S
WAYNESBORO*    PTSUNNY   75  55  49 W6        30.11S
HOT SPRINGS VA PTSUNNY   64  39  39 NW13G22   30.22S
LYNCHBURG      MOSUNNY   78  57  48 W6        30.12R
DANVILLE       PTSUNNY   77  62  59 NW8       30.12S
SOUTH BOSTON*  CLOUDY    80  60  51 NW7       30.10S
MARTINSVILLE   PTSUNNY   79  60  51 NW5       30.16S
ROANOKE        MOSUNNY   78  52  40 NW14      30.15F
BLACKSBURG     MOSUNNY   72  52  49 NW10      30.21S
DUBLIN*        PTSUNNY   73  45  36 NW10      30.19F
MARION*        PTSUNNY   71  50  46 W10G18    30.24S
HILLSVILLE*    MOSUNNY   69  47  44 NW12G21   30.20S
RICHLANDS*     PTSUNNY   69  51  52 W10       30.24S
WISE*          MOSUNNY   68  48  49 N6        30.26F
ABINGDON*      CLOUDY    74  54  50 N10       30.22F
$$

MDZ021>025-VAZ099-100-251800-
SOUTHERN MARYLAND AND THE DELMARVA PENINSULA

CITY           SKY/WX    TMP DP  RH WIND       PRES   REMARKS
PATUXENT RIVER CLOUDY    83  59  44 NE8       30.03S
BAY BRIDGE APT MOSUNNY   82  59  44 W7        30.02S
LEONARDTOWN    CLOUDY    81  59  47 CALM      30.05S
DOVER          MOSUNNY   83  64  51 S3        29.99F
GEORGETOWN     CLOUDY    84  59  42 CALM      30.01F
EASTON         MOSUNNY   84  57  39 W5        30.05F
CAMBRIDGE      SUNNY     82  55  39 NW8       30.02F
SALISBURY      CLOUDY    84  63  49 NW7       30.01F
OCEAN CITY     CLOUDY    79  64  60 NE9       30.02R
WALLOPS ISLAND PTSUNNY   83  65  54 NW6       30.01F
ACCOMACK*      MOSUNNY   84  65  51 NW7       30.02S
$$

NCZ012>017-030>032-251800-
NORTH CENTRAL AND EASTERN NORTH CAROLINA

CITY           SKY/WX    TMP DP  RH WIND       PRES   REMARKS
ROANOKE RAPIDS FAIR      82  68  61 NW7       30.06S
RALEIGH        CLOUDY    83  64  52 VRB7      30.10S
ELIZABETH CITY CLOUDY    86  75  69 W8        30.02F HX  95
AHOSKIE*         N/A     81  68  63 CALM      30.04F
EDENTON*       CLOUDY    84  73  70 CALM      30.04S
CURRITUCK*     CLOUDY    86  73  65 W3        30.02F
KILL DEVIL HLS CLOUDY    80  72  75 W5        30.01F
MANTEO         CLOUDY    81  73  76 N7        30.03F
CAPE HATTERAS  PTSUNNY   83  75  77 W8        30.03F
TARBORO*       NOT AVBL
GOLDSBORO      NOT AVBL
WASHINGTON     CLOUDY   N/A N/A N/A SW5       30.05F
GREENVILLE     CLOUDY    84  72  65 W5        30.07S
NEW BERN       CLOUDY    83  74  74 W8        30.05F
WILMINGTON     CLOUDY    84  74  71 SW6       30.05S
$$

VAZ048-251800-
ELSEWHERE

CITY           SKY/WX    TMP DP  RH WIND       PRES   REMARKS
HARRISBURG PA  MOSUNNY   81  56  42 NW10      29.99F
BALTIMORE      PTSUNNY   81  58  45 W14       30.01F
ANNAPOLIS      MOSUNNY   80  59  48 N12       30.01F
ANDREWS AFB    PTSUNNY   83  56  40 NW10      30.02F
PHILADELPHIA   PTSUNNY   84  56  38 W14G20    29.99F
HENDERSON NC   CLOUDY    77  61  56 N7        30.09F
GREENSBORO     PTSUNNY   78  64  61 VRB5      30.13S
ROCKY MOUNT    PTSUNNY   83  68  60 NW8       30.07S
$$

VAZ100-251800-
MARINE

STATION/POSITION TIME  TEMP    WIND        PRES    WAVE   SWELL
                       AIR SEA DIR/SP/G            HT/PER HT/PER
                 (UTC) (F)     (DEG/KT/KT) (MB)    (FT/S) (FT/S)
BRANDYWINE LGT   1642   76     290/  4/  5 1016.7F
CAPE MAY NJ      1642   76 66  230/  6/  7 1016.2F
LEWES DE         1648   75 72   40/  5/  6 1016.4F
15NM E FENWICK I 1650   70 69  340/  6/  6 1016.8S   2/ 7   2/ 7
OCEAN-CITY-INLET 1648   76 64   70/  8/ 11 1016.7R
WACHAPREAGUE VA  1648   81 82  110/  4/  6 1016.0F
THOMAS POINT MD  1700   78 78  170/  5/  6   N/A
GOOSES REEF MD   1700   80 81   80/  4/  4 1017.6    1
COVE POINT MD    1648   78      40/  5/  7 1017.4F
SOLOMONS ISLAND  1648   83 78  250/  4/  6   N/A
BISHOPS HEAD MD  1648   82 83  340/  5/ 18 1016.8F
PINEY POINT MD   1636          300/  5/  7   N/A
POTOMAC MD       1700   80 78   30/ 10/ 12 1016.0    1
CAMBRIDGE MD     1648   84 83              1017.3F
LEWISETTA VA     1648   81 79   10/  6/  9 1016.8F
RAPPAHANNOCK LGT 1636          330/ 13/ 14 1017.3F
STINGRAY PT      1700   79 79   40/  8/ 10 1017.4    1/ 3
YORK RVR RNG VA  1648   80     350/  8/  9 1017.1F
YORKTOWN VA      1648   81 78  300/  5/  6 1016.6S
JAMESTOWN VA     1700   82 83  310/  6/ 10   N/A     0
DOMINION TERM VA 1648   80     120/  6/  8 1016.8F
KIPTOPEKE VA     1636      76  330/ 14/ 16   N/A
CHES BAY BRIDGE  1636   78 74   10/  8/  9 1016.5F
CAPE HENRY VA    1636   78     330/  8/ 10   N/A
WILLOUBY STN VA  1636   79      40/ 10/ 11 1016.6F
S CRANEY ISL VA  1636   80      10/  7/  9 1016.5F
CAPE HENRY BUOY  1700      74                N/A     2/ 6
1ST LANDING BUOY 1700   79 77              1016.4    1/ 3
CAPE CHARLES BUO 1621      70                N/A     2/ 9
64NM E OF VA BCH 1650   74 73  270/  4/  6 1017.0S   3/ 7   3/ 7
DUCK PIER NC     1636   79 60  250/  5/  7 1016.3F
44100 DUCK FRF   1605      74                N/A     2/ 7
OREGON INLET NC  1636   79 77  210/  4/  5 1016.6F
HATTERAS NC      1636   80 78  270/  6/  8 1016.9F
DIAMOND SHLS NC  1650   79 80  250/  8/ 10 1017.0F   4/ 6   3/ 6
CAPE LOOKOUT NC  1700   80     250/  8/ 12 1016.8F
$$




USA.gov is the U.S. government's official web portal to all federal, state and local government web resources and services.